x

Portland 12 Nm Southeast Of Portland,me (44007) Wave Buoy

1:50 - Fri 18th Apr 2014 All times are EDT. -4 hours from GMT.

  • Sig Wave height 4.6ft
  • Swell Direction
  • Peak Period 8s
  • Average Period 6s
  • Wind
    4mph, 7mph gusts
  • Sea Temp 41°f
  • Luft Temp 38°f
  • Sea Pressure 1032.2mb
  • Portland 12 Nm Southeast Of Portland,me
  • Portland 12 Nm Southeast Of Portland,me

More Historic Weather Station data

Upgrade to MSW Pro to gain access to the past 30 days of data for over 8000 Wavebouys and Weather Stations around the globe.

Join Pro

Comparision Forecast

View Surf forecast
   
Fr 04/18 1:50 4.5ft 8s 6s 4 7 mph 1032.2mb 41f 38f
12:50 4.5ft 9s 6s 9 11 mph 1032.8mb 40f 38f
11:50 4.5ft 8s 6s 9
mph
1034.4mb 40f 38f
10:50 5ft 8s 6s 9
mph
1036mb 40f 38f
9:50 4.5ft 8s 6s 11 13 mph 1035.6mb 40f 37f
8:50 3.5ft 8s 5s 13 16 mph 1034.9mb 40f 36f
7:50 3.5ft 8s 5s 16 20 mph 1035.3mb 39f 35f
6:50 3ft 9s 5s 16 18 mph 1035.8mb 39f 34f
5:50 2.5ft 9s 5s 11 13 mph 1037.4mb 39f 35f
4:50 3ft 9s 5s 13 16 mph 1037.3mb 40f 34f
3:50 3ft 7s 5s 13 16 mph 1037.2mb 40f 35f
2:50 3ft 7s 6s 11 13 mph 1037.3mb 40f 36f
1:50 3.5ft 8s 6s 7 9 mph 1037.7mb 40f 37f
12:50 3.5ft 7s 5s 7 9 mph 1038.7mb 40f 37f
Do 04/17 11:50 3.5ft 8s 6s 7 9 mph 1039.6mb 40f 37f
10:50 3.5ft 7s 6s 4 7 mph 1040.3mb 40f 37f
9:50 3.5ft 8s 5s 2
mph
1041mb 40f 36f
8:50 3.5ft 6s 5s 2 4 mph 1041.6mb 40f 36f
7:50 3.5ft 9s 5s 7 9 mph 1041.7mb 40f 36f
6:50 3.5ft 9s 5s 9 11 mph 1041.9mb 40f 36f
5:50 3.5ft 9s 5s 11 13 mph 1042.2mb 40f 36f
4:50 3.5ft 6s 5s 13 18 mph 1042.1mb 40f 36f
3:50 3.5ft 6s 5s 13 16 mph 1042.2mb 40f 35f
2:50 3.5ft 6s 5s 16 18 mph 1042.5mb 40f 35f
1:50 3.5ft 6s 5s 16 18 mph 1043.2mb 40f 34f
12:50 4ft 6s 5s 16 18 mph 1043.6mb 40f 34f
11:50 3.5ft 10s 5s 18 20 mph 1043.9mb 40f 33f
10:50 3.5ft 10s 5s 18 20 mph 1044.4mb 39f 33f
9:50 3.5ft 11s 5s 18 20 mph 1044.3mb 39f 32f
8:50 3.5ft 10s 5s 13 18 mph 1044.4mb 39f 31f
7:50 3.5ft 11s 5s 16 20 mph 1043.7mb 39f 31f
6:50 3.5ft 10s 5s 20 25 mph 1042.3mb 39f 31f
5:50 3ft 11s 5s 18 20 mph 1041.8mb 39f 30f
4:50 3ft 10s 5s 16 18 mph 1041mb 39f 30f
3:50 2.5ft 10s 4s 18 20 mph 1040mb 39f 31f
2:50 3.5ft 11s 4s 18 22 mph 1038.9mb 39f 31f
1:50 3.5ft 11s 4s 20 22 mph 1038.2mb 39f 31f
12:50 3.5ft 11s 5s 20 25 mph 1037.7mb 39f 32f
Mi 04/16 11:50 3.5ft 11s 4s 20 25 mph 1036.6mb 39f 33f
10:50 3.5ft 12s 5s 20 25 mph 1035.9mb 39f 33f
9:50 3.5ft 11s 5s 18 22 mph 1035.1mb 40f 35f
8:50 3.5ft 13s 6s 16 20 mph 1034.2mb 40f 36f
7:50 4ft 12s 7s 16 20 mph 1032.4mb 40f 37f
6:50 3.5ft 11s 6s 18 22 mph 1031.4mb 40f 37f
5:50 3.5ft 11s 6s 16 18 mph 1030.7mb 40f 38f
4:50 3.5ft 10s 7s 16 18 mph 1029.5mb 40f 38f
3:50 3.5ft 11s 6s 18 25 mph 1027.9mb 40f 38f
2:50 3.5ft 11s 6s 18 22 mph 1026.9mb 40f 37f
1:50 3ft 11s 5s 16 20 mph 1025.9mb 40f 35f
12:50 3ft 11s 5s 16 22 mph 1025mb 40f 34f
11:50 3.5ft 11s 5s 18 22 mph 1023.9mb 39f 33f
10:50 3.5ft 11s 5s 18 22 mph 1022.9mb 39f 32f
9:50 3.5ft 10s 5s 20 22 mph 1021.6mb 39f 31f
8:50 3.5ft 8s 5s 18 22 mph 1019.8mb 39f 30f
7:50 4ft 9s 5s 25 27 mph 1017.3mb 39f 30f
6:50 4ft 9s 5s 20 25 mph 1014.7mb 38f 30f
5:50 4.5ft 8s 5s 20 25 mph 1012mb 38f 31f
4:50 4.5ft 8s 6s 13 20 mph 1010.9mb 38f 33f
3:50 5ft 8s 6s 18 20 mph 1009.3mb 39f 36f
2:50 5ft 8s 6s 18 22 mph 1007mb 39f 38f
1:50 6ft 8s 6s 16 20 mph 1006.3mb 40f 40f
12:50 6ft 7s 6s 20 27 mph 1004.1mb 41f 42f
Di 04/15 11:50 7ft 8s 6s 18 25 mph 1002.5mb 41f 45f
10:50 8ft 7s 6s 16 18 mph 1001.5mb 40f 45f
9:50 8ft 8s 6s 25 29 mph 1000.4mb 41f 47f
8:50 8.5ft 8s 6s 25 29 mph 1000.5mb 41f 47f
7:50 7.5ft 8s 6s 22 27 mph 1000.8mb 41f 47f
6:50 8ft 8s 6s 29 34 mph 1000.5mb 41f 49f
5:50 7ft 7s 5s 29 36 mph 1000.7mb 41f 49f
4:50 7ft 7s 5s 27 31 mph 1001.6mb 41f 48f
3:50 6ft 7s 5s 27 29 mph 1002.4mb 41f 49f
2:50 5.5ft 7s 5s 27 34 mph 1003.4mb 41f 49f
1:50 6ft 7s 5s 25 29 mph 1004.2mb 41f 47f
12:50 5ft 7s 5s 25 27 mph 1005.1mb 41f 47f
11:50 6ft 7s 5s 25 27 mph 1006.3mb 41f 47f
10:50 5ft 7s 5s 22 27 mph 1007.6mb 41f 47f
9:50 4.5ft 7s 5s 22 27 mph 1008.2mb 41f 47f
8:50 4.5ft 7s 5s 22 27 mph 1008.5mb 41f 46f
7:50 4.5ft 6s 5s 22 27 mph 1009.6mb 41f 46f
6:50 5ft 6s 5s 22 27 mph 1009.7mb 41f 47f
5:50 5ft 6s 5s 20 22 mph 1010.1mb 41f 47f
4:50 5ft 6s 5s 18 20 mph 1010.3mb 41f 47f
3:50 4.5ft 6s 5s 22 25 mph 1010mb 41f 48f
2:50 5ft 6s 5s 20 22 mph 1010.2mb 41f 47f
1:50 5ft 7s 5s 20 22 mph 1010.3mb 41f 46f
12:50 5ft 7s 5s 18 22 mph 1010.9mb 41f 47f
Mo 04/14 11:50 6ft 7s 5s 20 25 mph 1010.8mb 40f 47f
10:50 7ft 7s 5s 25 29 mph 1010.3mb 40f 47f
9:50 6.5ft 7s 5s 27 29 mph 1010.4mb 40f 48f
8:50 6.5ft 7s 5s 27 31 mph 1010.1mb 40f 48f
7:50 6ft 7s 5s 27 31 mph 1009.6mb 41f 48f
6:50 6ft 6s 5s 25 29 mph 1009.6mb 41f 49f